Regional Weather Roundup
Issued by NWS Newport/Morehead, NC

Current Version | Previous Version | Text Only | Print | Product List | Glossary On
Versions: 1 2 3 4 5 6 7 8 9 10 11 12 13 14 15 16 17 18 19 20 21 22 23 24 25 26 27 28 29 30 31 32 33 34 35 36 37 38 39 40 41 42 43 44 45 46 47 48 49 50
000
ASUS42 KMHX 171510
RWRMHX
WEATHER ROUNDUP FOR EASTERN NORTH CAROLINA
NATIONAL WEATHER SERVICE NEWPORT/MOREHEAD CITY NC
1100 AM EDT THU APR 17 2014

NOTE: "FAIR" INDICATES FEW OR NO CLOUDS BELOW 12,000 FEET
WITH NO SIGNIFICANT WEATHER AND/OR OBSTRUCTIONS TO VISIBILITY

NCZ015>017-031-032-045>047-102-103-171600-
NORTH COAST

CITY           SKY/WX    TMP DP  RH WIND       PRES   REMARKS
EDENTON        SUNNY     54  41  62 NE13G18   30.55S
ELIZABETH CITY MOSUNNY   53  40  61 NE21G26   30.56R
KITTY HAWK     CLOUDY    50  40  68 N14G22    30.52S
MANTEO         PTSUNNY   50  39  65 NE25G33   30.53R

$$

NCZ045>047-081-094-103-104-171600-
CENTRAL COAST

CITY           SKY/WX    TMP DP  RH WIND       PRES   REMARKS
FRISCO         CLOUDY    54  45  71 N14G32    30.48R
SWANQUARTER      N/A     57 N/A N/A NE13G26   30.47S

$$

NCZ095-097-098-100-101-171600-
SOUTHERN COAST

CITY           SKY/WX    TMP DP  RH WIND       PRES   REMARKS
BEAUFORT       CLOUDY    58  45  62 NE18G26   30.48S
CEDAR ISLAND     N/A     55 N/A N/A N16G25    30.53R
JACKSONVILLE   SUNNY     56  42  59 N13       30.49S
NEWPORT          N/A     57  45  62 NE7         N/A
PINEY ISLAND   CLOUDY    56  45  66 N20G28    30.49R
WILMINGTON     MOSUNNY   59  41  51 N13       30.48R


$$

NCZ011>013-027>030-043-044-078>080-089-090>093-098-171600-
COASTAL PLAIN

CITY           SKY/WX    TMP DP  RH WIND       PRES   REMARKS
AHOSKIE        SUNNY     51  38  61 NE10      30.57S
CLINTON        SUNNY     52  39  61 NE8G16    30.53R
ELIZABETHTOWN  MOSUNNY   52  38  58 N7        30.50S
GOLDSBORO      SUNNY     51  38  60 NE13      30.51S
GREENVILLE     SUNNY     52  39  62 NE12      30.54S
HAVELOCK       MOSUNNY   58  42  55 NE16      30.51R
KENANSVILLE    SUNNY     51  38  60 N9        30.53R
KINSTON        SUNNY     52  39  62 N10       30.53S
NEW BERN       MOSUNNY   57  43  59 N12G20    30.52S
RICHLANDS      SUNNY     54  37  54 NE16      30.51S
ROANOKE RAPIDS NOT AVBL
ROCKY MOUNT      N/A    N/A N/A N/A MISG      30.56S
WASHINGTON     MOSUNNY   54  43  66 NE8       30.54R
WHITEVILLE     MOSUNNY   52  38  59 N6        30.49R

$$

AMZ130-135-150-152-154-156-158-170-250-252-270-ANZ085-086-088-633-658-670-171600-
MARINE OBSERVATIONS

STATION/POSITION TIME  TEMP    WIND        PRES    WAVE   SWELL
                       AIR SEA DIR/SP/G            HT/PER HT/PER
                 (UTC) (F)     (DEG/KT/KT) (MB)    (FT/S) (FT/S)
CHESAPEAKE LIGHT 1400   45      50/ 30/ 34 1034.6
BUOY 44014       1500   50 54   20/ 25/ 31 1032.7   10/10   5/10
DUCK             1500   47 49   30/ 28/ 31 1032.8
2E DUCK          1500      48                N/A     8/ 6   2/11
OREGON INLET     1500   50 49   10/ 17/ 24 1033.1
BUOY 44095       1500      49                N/A    10/ 8   3/11
HATTERAS CG      1500   51 53   10/ 26/ 33 1032.0
DIAMOND BUOY     NOT AVBL
CAPE LOOKOUT     1500   54      20/ 20/ 23 1031.8
BEAUFORT LAB     1500   54 58   20/ 13/ 18 1031.4
30 SE NEW RIVER  1500   55 64   30/ 23/ 29 1031.0    8/ 7   3/ 9
5 SE WRIGHTSVILL 1400   51 60   30/ 17/ 21 1031.0
FRYING PAN BUOY  1500   57 63   50/ 23/ 27 1029.6    8/ 7   3/ 9
BUOY 41001       NOT AVBL
BUOY 41002       NOT AVBL
BUOY 41004       NOT AVBL

$$



USA.gov is the U.S. government's official web portal to all federal, state and local government web resources and services.